Вернуться в каталог

STARLINK-33998

АктивенСвязьVLEO
NORAD 63951·PAYLOAD·🇺🇸 United States

Запущен May 13, 2025 с Vandenberg Space Force Base

Loading…

Ближайшие Пролёты (ближайшие 24 часа)

TLE

СвежийSource: CelesTrak SupGP

Эпоха: Sep 14, 2026, 22:58 UTC

1 63951C 25098AB  26257.95743056  .00018655  00000+0  64816-3 0  2578
2 63951  69.9998 155.5564 0003167 275.5651 144.2622 15.29609703    19

Отслеживайте STARLINK-33998 в реальном времени с AllMySat

Download on the App Store